Regional Weather Roundup
Issued by NWS

Home | Current Version | Previous Version | Text Only | Print | Product List | Glossary Off
Versions: 1 2 3 4 5 6 7 8 9 10 11 12 13 14 15 16 17 18 19 20 21 22 23 24 25 26 27 28 29 30 31 32 33 34 35 36 37 38 39 40 41 42 43 44 45 46 47 48 49 50

508
ASUS43 KOAX 081702
RWRNE

WEATHER ROUNDUP FOR NEBRASKA
NATIONAL WEATHER SERVICE OMAHA NE
1100 AM CST MON FEB 08 2016

NOTES: SATELLITE DATA IS BEING USED TO AUGMENT CLOUD COVER ABOVE
       12000 FEET.
       "FAIR" INDICATES FEW OR NO CLOUDS BELOW 12,000 FEET WITH NO
       SIGNIFICANT WEATHER AND/OR OBSTRUCTIONS TO VISIBILITY.

  * THESE STATIONS DO NOT REPORT WEATHER SUCH AS RAIN...SNOW OR FOG.

NEZ001>004-019>022-054>056-081800-
NEBRASKA PANHANDLE

CITY           SKY/WX    TMP DP  RH WIND       PRES   REMARKS
SCOTTSBLUFF    MOSUNNY   33  17  51 NW23      30.39S WCI  21
ALLIANCE       CLOUDY    29  13  51 NW18      30.36R WCI  16
CHADRON        CLOUDY    33  13  43 NW18G28   30.40S WCI  22
SIDNEY         CLOUDY    31  17  56 NW16      30.37R WCI  20
$$

NEZ057>060-069>072-079>082-081800-
SOUTHWEST NEBRASKA

CITY           SKY/WX    TMP DP  RH WIND       PRES   REMARKS
NORTH PLATTE   SUNNY     32  14  47 NW24G36   30.33R WCI  19
IMPERIAL       CLOUDY    31  13  47 NW20      30.37R WCI  19
MCCOOK         CLOUDY    32  15  49 NW28G39   30.35R WCI  18
$$

NEZ005>010-023>029-035>040-094-081800-
NORTH CENTRAL NEBRASKA

CITY           SKY/WX    TMP DP  RH WIND       PRES   REMARKS
BROKEN BOW     SUNNY     32  15  49 N25G39    30.26R WCI  19
ORD            SUNNY     30  16  56 NW33G47   30.22R WCI  14
$$

NEZ041-046>049-061>064-073>077-083>087-081800-
SOUTH CENTRAL NEBRASKA

CITY           SKY/WX    TMP DP  RH WIND       PRES   REMARKS
GRAND ISLAND   SUNNY     30  16  56 NW29G39   30.22R WCI  15
HASTINGS       SUNNY     31  17  56 NW28G36   30.22R WCI  17
$$

NEZ011>018-030>034-042>045-081800-
NORTHEAST NEBRASKA

CITY           SKY/WX    TMP DP  RH WIND       PRES   REMARKS
NORFOLK        CLOUDY    28  17  63 NW37G46   30.14R WCI  11
COLUMBUS *     CLOUDY    28  12  50 NW26G39   30.17R WCI  13
TEKAMAH        MIX PCPN  28  17  63 NW32G39   30.12R WCI  12
$$

NEZ050>053-065>068-078-088>093-081800-
SOUTHEAST NEBRASKA

CITY           SKY/WX    TMP DP  RH WIND       PRES   REMARKS
LINCOLN        CLOUDY    30  17  58 NW35G45   30.16R WCI  14
OMAHA EPPLEY   FLURRIES  27  17  66 NW26G35   30.10R WCI  12
FALLS CITY     FLURRIES  30  20  66 NW24G33   30.10R WCI  16
NEBRASKA CITY  CLOUDY    29  19  66 N26G39    30.10R WCI  14
$$

NEZ044-045-051>053-067-081800-
OMAHA AREA

CITY           SKY/WX    TMP DP  RH WIND       PRES   REMARKS
OMAHA EPPLEY   FLURRIES  27  17  66 NW26G35   30.10R WCI  12
OFFUTT AFB     CLOUDY    28  16  60 NW24G38   30.09R WCI  14
WAHOO          CLOUDY    29  20  67 N29G40    30.13R WCI  14
$$




USA.gov is the U.S. government's official web portal to all federal, state and local government web resources and services.